BTI7EG EDDF-EVRA

Flight info

Callsign BTI7EG
Flight time N/A
Altitude 31000
Route TOBAK8F TOBAK N858 FEDZA Y172 ETIDI/N0446F370 Y172 SISMI DCT ASMIG DCT RIMKO DCT FARCU DCT GORPI DCT ANFEV DCT DIPEB DCT NINTA DCT ADAXA DCT ORVIX
Aircraft A319/M-SDE3FGHIRWY/LB1

Departure

Time N/A
Airport Frankfurt Main Airport (EDDF)

Arrival

Time 2026-05-05 09:54
Airport Riga International Airport (EVRA)
Time Latitude Longitude Altitude Speed Heading
2026-05-05 09:17 55.64715 16.98560 36955 ft 489 kts 44°
2026-05-05 09:18 55.69388 17.07320 36949 ft 489 kts 44°
2026-05-05 09:18 55.74052 17.16110 36946 ft 490 kts 45°
2026-05-05 09:19 55.78711 17.24947 36949 ft 490 kts 44°
2026-05-05 09:19 55.83448 17.33663 36948 ft 490 kts 43°
2026-05-05 09:20 55.88242 17.42281 36949 ft 490 kts 43°
2026-05-05 09:20 55.93020 17.50947 36947 ft 490 kts 43°
2026-05-05 09:21 55.97776 17.59677 36949 ft 491 kts 44°
2026-05-05 09:21 56.02527 17.68433 36943 ft 491 kts 44°
2026-05-05 09:22 56.07303 17.77263 36942 ft 491 kts 44°
2026-05-05 09:22 56.12050 17.86072 36949 ft 491 kts 44°
2026-05-05 09:23 56.16571 17.95145 36937 ft 493 kts 54°
2026-05-05 09:23 56.19540 18.06210 36931 ft 494 kts 75°
2026-05-05 09:24 56.21337 18.18119 36929 ft 494 kts 76°
2026-05-05 09:24 56.23103 18.30051 36929 ft 494 kts 77°
2026-05-05 09:25 56.24601 18.42112 36931 ft 494 kts 80°
2026-05-05 09:25 56.25874 18.54254 36934 ft 494 kts 81°
2026-05-05 09:26 56.27171 18.66492 36939 ft 495 kts 80°
2026-05-05 09:26 56.28534 18.78631 36929 ft 495 kts 79°
2026-05-05 09:27 56.29966 18.90654 36926 ft 495 kts 73°
2026-05-05 09:27 56.32182 19.02410 36929 ft 496 kts 71°
2026-05-05 09:28 56.34403 19.14175 36930 ft 496 kts 71°
2026-05-05 09:28 56.36608 19.25961 36923 ft 496 kts 72°
2026-05-05 09:29 56.38809 19.37766 36928 ft 496 kts 72°
2026-05-05 09:29 56.41003 19.49601 36927 ft 500 kts 72°
2026-05-05 09:30 56.43205 19.61537 36955 ft 501 kts 72°
2026-05-05 09:30 56.45403 19.73524 36943 ft 501 kts 72°
2026-05-05 09:31 56.47574 19.85473 36942 ft 499 kts 72°
2026-05-05 09:31 56.49723 19.97404 36944 ft 499 kts 72°
2026-05-05 09:32 56.51863 20.09336 36938 ft 498 kts 72°
2026-05-05 09:32 56.53994 20.21274 36932 ft 498 kts 72°
2026-05-05 09:33 56.56114 20.33212 36931 ft 497 kts 72°
2026-05-05 09:33 56.58215 20.45155 36921 ft 497 kts 73°
2026-05-05 09:33 56.59261 20.51146 36734 ft 498 kts 73°
2026-05-05 09:34 56.60302 20.57136 36477 ft 498 kts 73°
2026-05-05 09:34 56.61346 20.63138 36220 ft 499 kts 73°
2026-05-05 09:34 56.62389 20.69136 35966 ft 500 kts 73°
2026-05-05 09:34 56.63434 20.75165 35715 ft 501 kts 73°
2026-05-05 09:35 56.64480 20.81209 35449 ft 502 kts 73°
2026-05-05 09:35 56.66596 20.93525 33300 ft 518 kts 73°
2026-05-05 09:35 56.67667 20.99805 32135 ft 524 kts 73°
2026-05-05 09:36 56.68742 21.06132 31472 ft 520 kts 73°
2026-05-05 09:36 56.69803 21.12406 30729 ft 517 kts 73°
2026-05-05 09:36 56.70852 21.18644 29999 ft 514 kts 73°
2026-05-05 09:36 56.71892 21.24848 29206 ft 511 kts 73°
2026-05-05 09:37 56.72919 21.30992 28514 ft 505 kts 73°
2026-05-05 09:37 56.73930 21.37064 27809 ft 500 kts 73°
2026-05-05 09:37 56.74939 21.43134 27103 ft 496 kts 73°
2026-05-05 09:37 56.75936 21.49129 26417 ft 493 kts 73°
2026-05-05 09:38 56.76922 21.55078 25732 ft 489 kts 73°
2026-05-05 09:38 56.77898 21.60996 25082 ft 485 kts 73°
2026-05-05 09:38 56.78862 21.66863 24442 ft 481 kts 73°
2026-05-05 09:38 56.79813 21.72682 23836 ft 477 kts 73°
2026-05-05 09:39 56.80754 21.78469 23186 ft 474 kts 73°
2026-05-05 09:39 56.81679 21.84206 22600 ft 468 kts 73°
2026-05-05 09:39 56.82591 21.89876 22035 ft 463 kts 73°
2026-05-05 09:39 56.83496 21.95491 21468 ft 459 kts 73°
2026-05-05 09:40 56.84396 22.01069 20900 ft 456 kts 73°
2026-05-05 09:40 56.85286 22.06601 20313 ft 454 kts 73°
2026-05-05 09:40 56.86173 22.12133 19823 ft 450 kts 73°
2026-05-05 09:40 56.87047 22.17608 19196 ft 450 kts 73°
2026-05-05 09:41 56.87906 22.23029 18741 ft 440 kts 73°
2026-05-05 09:41 56.88753 22.28378 18071 ft 435 kts 73°
2026-05-05 09:41 56.89586 22.33655 17383 ft 429 kts 74°
2026-05-05 09:41 56.90321 22.38904 16777 ft 421 kts 81°
2026-05-05 09:42 56.90736 22.44129 16291 ft 410 kts 83°
2026-05-05 09:42 56.91133 22.49236 15810 ft 401 kts 83°
2026-05-05 09:42 56.91524 22.54252 15336 ft 397 kts 83°
2026-05-05 09:42 56.91912 22.59242 14861 ft 394 kts 83°
2026-05-05 09:43 56.92295 22.64194 14390 ft 392 kts 83°
2026-05-05 09:43 56.92672 22.69118 13921 ft 389 kts 83°
2026-05-05 09:43 56.93044 22.74013 13418 ft 387 kts 83°
2026-05-05 09:43 56.93412 22.78879 12925 ft 384 kts 83°
2026-05-05 09:44 56.93775 22.83696 12444 ft 380 kts 83°
2026-05-05 09:44 56.94131 22.88458 11957 ft 376 kts 83°
2026-05-05 09:44 56.94481 22.93183 11476 ft 372 kts 83°
2026-05-05 09:44 56.94826 22.97862 10989 ft 369 kts 83°
2026-05-05 09:45 56.95166 23.02499 10500 ft 366 kts 83°
2026-05-05 09:45 56.95500 23.07089 10189 ft 358 kts 83°
2026-05-05 09:45 56.95822 23.11518 10068 ft 344 kts 83°
2026-05-05 09:45 56.96130 23.15793 9942 ft 333 kts 83°
2026-05-05 09:46 56.96426 23.19927 9737 ft 324 kts 83°
2026-05-05 09:46 56.96718 23.24007 9279 ft 325 kts 83°
2026-05-05 09:46 56.97008 23.28084 8937 ft 319 kts 83°
2026-05-05 09:46 56.97293 23.32086 8428 ft 316 kts 83°
2026-05-05 09:47 56.97575 23.36062 7903 ft 313 kts 83°
2026-05-05 09:47 56.97855 23.40002 7383 ft 310 kts 83°
2026-05-05 09:47 56.98038 23.42594 7082 ft 308 kts 83°
2026-05-05 09:47 56.98291 23.46360 6577 ft 304 kts 83°
2026-05-05 09:48 56.98552 23.50188 5943 ft 301 kts 83°
2026-05-05 09:48 56.98808 23.53921 5447 ft 296 kts 83°
2026-05-05 09:48 56.99063 23.57623 5312 ft 282 kts 83°
2026-05-05 09:48 56.99302 23.61059 5189 ft 269 kts 83°
2026-05-05 09:49 56.99532 23.64382 5074 ft 257 kts 83°
2026-05-05 09:49 56.99829 23.67552 4945 ft 247 kts 73°
2026-05-05 09:49 57.00278 23.70530 4815 ft 238 kts 73°
2026-05-05 09:49 57.00697 23.73386 4722 ft 225 kts 74°
2026-05-05 09:50 57.01086 23.76083 4571 ft 214 kts 74°
2026-05-05 09:50 57.01461 23.78694 4262 ft 210 kts 75°
2026-05-05 09:50 57.01832 23.81263 3890 ft 207 kts 75°
2026-05-05 09:50 57.02200 23.83800 3541 ft 204 kts 74°
2026-05-05 09:51 57.02561 23.86291 3120 ft 200 kts 75°
2026-05-05 09:51 57.02906 23.88752 2610 ft 199 kts 78°
2026-05-05 09:51 57.02939 23.91259 2195 ft 195 kts 100°
2026-05-05 09:51 57.02551 23.93614 1992 ft 187 kts 118°
2026-05-05 09:52 57.01850 23.95524 1754 ft 176 kts 136°
2026-05-05 09:52 57.00931 23.96926 1531 ft 168 kts 152°
2026-05-05 09:52 56.99907 23.97782 1312 ft 156 kts 168°
2026-05-05 09:52 56.98862 23.98119 1096 ft 149 kts 182°
2026-05-05 09:53 56.97875 23.98022 910 ft 137 kts 191°
2026-05-05 09:53 56.96952 23.97838 736 ft 131 kts 192°
2026-05-05 09:53 56.96057 23.97647 564 ft 129 kts 189°
2026-05-05 09:53 56.95172 23.97535 418 ft 127 kts 187°
2026-05-05 09:54 56.94294 23.97410 222 ft 126 kts 188°
2026-05-05 09:54 56.93431 23.97290 70 ft 124 kts 188°
2026-05-05 09:54 56.92648 23.97165 46 ft 96 kts 187°
2026-05-05 09:54 56.92150 23.97074 45 ft 47 kts 184°
2026-05-05 09:55 56.91955 23.97061 44 ft 21 kts 174°
2026-05-05 09:55 56.91811 23.97134 44 ft 22 kts 152°
2026-05-05 09:55 56.91739 23.97208 45 ft 8 kts 141°
2026-05-05 09:55 56.91712 23.97308 44 ft 10 kts 96°
2026-05-05 09:56 56.91747 23.97406 44 ft 10 kts 15°
2026-05-05 09:56 56.91822 23.97421 44 ft 11 kts
2026-05-05 09:56 56.91904 23.97435 44 ft 12 kts
2026-05-05 09:56 56.91993 23.97440 44 ft 13 kts
2026-05-05 09:57 56.92088 23.97453 44 ft 14 kts
2026-05-05 09:57 56.92130 23.97472 44 ft 4 kts 36°
2026-05-05 09:57 56.92140 23.97525 44 ft 5 kts 88°
2026-05-05 09:57 56.92159 23.97574 42 ft 6 kts 22°
2026-05-05 09:58 56.92195 23.97584 43 ft 3 kts
2026-05-05 09:58 56.92205 23.97585 44 ft 0 kts